When you browse on this site, cookies collect data to enhance your experience and personalize the content and advertising you see.
Visit our Privacy Policy to learn more. By continuing to use the site, you agree to this use of cookies and data.
  • In Austria
  • List of Countries
  • For 7 days
  • Water Temperature
  • Weather Map
  • News
  • Weather Widgets
  • user-avatar
    Login

    Hourly Weather Korçe

    Today, 18 February, Tuesday

    Time Temperature Precipitation Wind Pressure Humidity
    00:00 +4°C° 0 mm 0 mps 669 mmHg 59%
    01:00 +4°C° 0 mm 0 mps 669 mmHg 58%
    02:00 +4°C° 0 mm 0 mps 668 mmHg 58%
    03:00 +4°C° 0 mm 0 mps 668 mmHg 58%
    04:00 +4°C° 0 mm 0 mps 668 mmHg 58%
    05:00 +4°C° 0 mm 0 mps 668 mmHg 57%
    06:00 +4°C° 0 mm 0 mps 668 mmHg 55%
    07:00 +5°C° 0 mm 1 mps 668 mmHg 55%
    08:00 +7°C° 0 mm 1 mps 668 mmHg 50%
    09:00 +10°C° 0 mm 1 mps 669 mmHg 45%
    10:00 +12°C° 0 mm 1 mps 669 mmHg 39%
    11:00 +12°C° 0 mm 2 mps 669 mmHg 40%
    12:00 +13°C° 0 mm 2 mps 669 mmHg 40%
    13:00 +14°C° 0 mm 2 mps 669 mmHg 40%
    14:00 +13°C° 0 mm 2 mps 669 mmHg 45%
    15:00 +12°C° 0 mm 2 mps 668 mmHg 51%
    16:00 +12°C° 0 mm 2 mps 668 mmHg 56%
    17:00 +10°C° 0 mm 1 mps 668 mmHg 63%
    18:00 +8°C° 0 mm 1 mps 667 mmHg 69%
    19:00 +6°C° 0 mm 1 mps 667 mmHg 76%
    20:00 +6°C° 0 mm 1 mps 667 mmHg 76%
    21:00 +6°C° 0 mm 1 mps 667 mmHg 76%
    22:00 +6°C° 0 mm 1 mps 667 mmHg 76%
    23:00 +5°C° 0 mm 1 mps 667 mmHg 77%

    Tomorrow, 19 February, Wednesday

    Time Temperature Precipitation Wind Pressure Humidity
    00:00 +4°C° 0 mm 0 mps 667 mmHg 77%
    01:00 +4°C° 0 mm 0 mps 667 mmHg 78%
    02:00 +3°C° 0 mm 0 mps 667 mmHg 79%
    03:00 +4°C° 0 mm 1 mps 667 mmHg 79%
    04:00 +4°C° 0 mm 1 mps 666 mmHg 80%
    05:00 +4°C° 0 mm 1 mps 666 mmHg 80%
    06:00 +3°C° 0 mm 0 mps 666 mmHg 80%
    07:00 +3°C° 0 mm 0 mps 666 mmHg 81%
    08:00 +5°C° 0 mm 1 mps 667 mmHg 76%
    09:00 +7°C° 0 mm 1 mps 667 mmHg 71%
    10:00 +8°C° 0 mm 1 mps 667 mmHg 67%
    11:00 +9°C° 0 mm 1 mps 667 mmHg 64%
    12:00 +9°C° 0 mm 2 mps 667 mmHg 62%
    13:00 +9°C° 0 mm 2 mps 667 mmHg 60%
    14:00 +9°C° 0 mm 2 mps 666 mmHg 64%
    15:00 +8°C° 0 mm 2 mps 666 mmHg 68%
    16:00 +8°C° 0 mm 2 mps 665 mmHg 72%
    17:00 +7°C° 0.1 mm 2 mps 665 mmHg 78%
    18:00 +7°C° 0.1 mm 1 mps 665 mmHg 84%
    19:00 +7°C° 0.1 mm 1 mps 665 mmHg 89%
    20:00 +6°C° 0.2 mm 1 mps 665 mmHg 90%
    21:00 +6°C° 0.2 mm 1 mps 664 mmHg 91%
    22:00 +5°C° 0.2 mm 1 mps 664 mmHg 92%
    23:00 +5°C° 0.2 mm 1 mps 664 mmHg 93%

    Day after tomorrow, 20 February, Thursday

    Time Temperature Precipitation Wind Pressure Humidity
    00:00 +5°C° 0.2 mm 1 mps 663 mmHg 93%
    01:00 +4°C° 0.2 mm 1 mps 663 mmHg 93%
    02:00 +4°C° 1.2 mm 1 mps 663 mmHg 94%
    03:00 +4°C° 1.2 mm 1 mps 662 mmHg 95%
    04:00 +4°C° 1.2 mm 1 mps 662 mmHg 96%
    05:00 +3°C° 1.4 mm 1 mps 662 mmHg 96%
    06:00 +3°C° 1.4 mm 1 mps 662 mmHg 96%
    07:00 +3°C° 1.4 mm 1 mps 662 mmHg 96%
    08:00 +3°C° 0.8 mm 1 mps 662 mmHg 95%
    09:00 +3°C° 0.8 mm 1 mps 663 mmHg 95%
    10:00 +4°C° 0.8 mm 1 mps 663 mmHg 94%
    11:00 +3°C° 1.1 mm 2 mps 663 mmHg 92%
    12:00 +3°C° 1.1 mm 2 mps 663 mmHg 89%
    13:00 +3°C° 1.1 mm 2 mps 663 mmHg 86%
    14:00 +3°C° 0.1 mm 2 mps 663 mmHg 81%
    15:00 +2°C° 0.1 mm 3 mps 663 mmHg 76%
    16:00 +3°C° 0.1 mm 3 mps 663 mmHg 70%
    17:00 +3°C° 0 mm 2 mps 664 mmHg 73%
    18:00 +2°C° 0 mm 2 mps 664 mmHg 77%
    19:00 +1°C° 0 mm 2 mps 664 mmHg 80%
    20:00 -1°C° 0 mm 2 mps 664 mmHg 79%
    21:00 -1°C° 0 mm 2 mps 664 mmHg 79%
    22:00 -2°C° 0 mm 2 mps 665 mmHg 79%
    23:00 -2°C° 0 mm 2 mps 665 mmHg 78%

    21 February, Friday

    Time Temperature Precipitation Wind Pressure Humidity
    00:00 -2°C° 0 mm 2 mps 665 mmHg 77%
    01:00 -2°C° 0 mm 2 mps 665 mmHg 77%
    02:00 -3°C° 0 mm 2 mps 665 mmHg 76%
    03:00 -3°C° 0 mm 2 mps 665 mmHg 75%
    04:00 -3°C° 0 mm 2 mps 665 mmHg 75%
    05:00 -3°C° 0 mm 2 mps 665 mmHg 74%
    06:00 -3°C° 0 mm 2 mps 666 mmHg 73%
    07:00 -3°C° 0 mm 2 mps 666 mmHg 72%
    14:00 +7°C° 0 mm 1 mps 669 mmHg 39%
    15:00 +7°C° 0 mm 1 mps 669 mmHg 41%
    16:00 +7°C° 0 mm 1 mps 668 mmHg 43%
    17:00 +5°C° 0 mm 1 mps 668 mmHg 48%
    18:00 +3°C° 0 mm 1 mps 668 mmHg 54%
    19:00 +2°C° 0 mm 1 mps 668 mmHg 60%
    20:00 +1°C° 0 mm 1 mps 669 mmHg 60%
    21:00 +1°C° 0 mm 1 mps 669 mmHg 61%
    22:00 +1°C° 0 mm 1 mps 669 mmHg 61%
    23:00 +1°C° 0 mm 1 mps 669 mmHg 62%

    22 February, Saturday

    Time Temperature Precipitation Wind Pressure Humidity
    00:00 +1°C° 0 mm 1 mps 669 mmHg 63%
    01:00 +1°C° 0 mm 1 mps 670 mmHg 64%
    02:00 -2°C° 0 mm 2 mps 670 mmHg 64%
    03:00 -2°C° 0 mm 2 mps 670 mmHg 64%
    04:00 -2°C° 0 mm 2 mps 670 mmHg 65%
    05:00 -2°C° 0 mm 2 mps 670 mmHg 66%
    06:00 -2°C° 0 mm 2 mps 670 mmHg 67%
    07:00 -2°C° 0 mm 2 mps 670 mmHg 68%
    08:00 +1°C° 0 mm 2 mps 671 mmHg 62%
    09:00 +3°C° 0 mm 2 mps 672 mmHg 57%
    10:00 +5°C° 0 mm 2 mps 673 mmHg 51%
    11:00 +5°C° 0 mm 2 mps 673 mmHg 49%
    12:00 +6°C° 0 mm 2 mps 673 mmHg 46%
    13:00 +6°C° 0 mm 2 mps 673 mmHg 44%
    14:00 +6°C° 0 mm 2 mps 672 mmHg 44%
    15:00 +6°C° 0 mm 2 mps 672 mmHg 45%
    16:00 +5°C° 0 mm 2 mps 672 mmHg 45%
    17:00 +4°C° 0 mm 2 mps 672 mmHg 48%
    18:00 +2°C° 0 mm 2 mps 672 mmHg 51%
    19:00 +1°C° 0 mm 1 mps 672 mmHg 55%
    20:00 -1°C° 0 mm 2 mps 672 mmHg 54%
    21:00 -1°C° 0 mm 2 mps 672 mmHg 53%
    22:00 -2°C° 0 mm 2 mps 673 mmHg 53%
    23:00 -2°C° 0 mm 2 mps 673 mmHg 52%

    23 February, Sunday

    Time Temperature Precipitation Wind Pressure Humidity
    00:00 -2°C° 0 mm 2 mps 673 mmHg 51%
    01:00 -2°C° 0 mm 2 mps 673 mmHg 50%
    02:00 0°C° 0 mm 1 mps 672 mmHg 49%
    03:00 0°C° 0 mm 1 mps 672 mmHg 47%
    04:00 0°C° 0 mm 1 mps 672 mmHg 46%
    05:00 0°C° 0 mm 1 mps 672 mmHg 45%
    06:00 +1°C° 0 mm 1 mps 672 mmHg 44%
    07:00 +1°C° 0 mm 1 mps 672 mmHg 44%
    08:00 +3°C° 0 mm 1 mps 673 mmHg 40%
    09:00 +5°C° 0 mm 1 mps 673 mmHg 37%
    10:00 +8°C° 0 mm 1 mps 674 mmHg 33%
    11:00 +8°C° 0 mm 2 mps 674 mmHg 35%
    12:00 +9°C° 0 mm 2 mps 674 mmHg 37%
    13:00 +10°C° 0 mm 2 mps 674 mmHg 39%
    14:00 +9°C° 0 mm 2 mps 673 mmHg 45%
    15:00 +8°C° 0 mm 2 mps 673 mmHg 50%
    16:00 +8°C° 0 mm 2 mps 672 mmHg 55%
    17:00 +7°C° 0 mm 2 mps 672 mmHg 58%
    18:00 +6°C° 0 mm 1 mps 672 mmHg 61%
    19:00 +5°C° 0 mm 1 mps 672 mmHg 64%
    20:00 +5°C° 0 mm 1 mps 672 mmHg 63%
    21:00 +5°C° 0 mm 1 mps 672 mmHg 61%
    22:00 +5°C° 0 mm 1 mps 672 mmHg 60%
    23:00 +5°C° 0 mm 1 mps 672 mmHg 59%
    Show more